Hourly Data Report for June 25, 2017

ATIKOKAN (AUT)
ONTARIO

48°45'40.000" N
91°37'41.000" W
389.30 m
6020LPQ
71747
WCH

Download Data

Hourly Data (June 2017)
Hourly Data Report for June 25, 2017
TIME
LST
Temp Definition
°C
Dew Point Definition
°C
Rel Hum Definition
%
Precip. Amount Definition
mm

Wind Dir Definition
10's deg

Wind Spd Definition
km/h
Visibility Definition
km
Stn Press Definition
kPa
Hmdx Definition


Wind Chill Definition


Weather Definition


00:00 11.2 9.9 92 0.0 34 4   96.97     LegendNANA
01:00 10.8 9.6 92 0.0 33 2   96.99     LegendNANA
02:00 11.2 9.6 90 0.0 2 2   96.99     LegendNANA
03:00 10.7 9.2 91 0.0 36 2   96.99     LegendNANA
04:00 10.1 9.1 93 0.0   0   97.00     LegendNANA
05:00 10.9 9.6 92 0.0 32 5   97.06     LegendNANA
06:00 11.0 9.3 89 0.0 35 5   97.10     LegendNANA
07:00 11.2 9.4 89 0.0 1 4   97.13     LegendNANA
08:00 11.4 9.6 89 0.2 1 3   97.16     LegendNANA
09:00 11.5 9.4 87 0.3 4 7   97.16     LegendNANA
10:00 11.8 9.8 88 0.6 4 3   97.17     LegendNANA
11:00 10.8 9.3 91 6.6 6 5   97.20     LegendNANA
12:00 10.8 9.3 91 4.5 36 4   97.21     LegendNANA
13:00 10.3 8.9 91 4.3 3 8   97.22     LegendNANA
14:00 10.0 8.3 89 1.3 1 5   97.27     LegendNANA
15:00 10.1 8.4 89 1.0 35 4   97.32     LegendNANA
16:00 9.6 7.6 88 1.2 2 5   97.35     LegendNANA
17:00 9.6 7.6 87 1.0 34 4   97.32     LegendNANA
18:00 9.5 7.9 90 0.6 30 3   97.33     LegendNANA
19:00 9.7 8.4 91 0.0 24 3   97.32     LegendNANA
20:00 9.4 8.1 92 0.3 26 2   97.31     LegendNANA
21:00 9.3 8.2 93 0.0 21 2   97.31     LegendNANA
22:00 9.2 8.2 93 0.2 27 1   97.28     LegendNANA
23:00 9.2 8.1 93 0.0 28 2   97.26     LegendNANA

Notes on Data Quality.

Legend

  • E = Estimated
  • M = Missing
  • NA = Not Available*
  • [empty] = Indicates an unobserved value
Date modified: